Location: Monrovia
(34.7865°N, 86.7139°W)
Time: 21:57:22
(UTC+00:00)

Milstar 3 - Pass Details

Date: 14 July 2020
Orbit: 1101 x 5144 km, 28.2° (Epoch: 13 July)

Event Time Altitude Azimuth Distance (km) Brightness Sun altitude
Rises 01:33:54 0° 268° (W) 4,407 6.9 -6.6°
Reaches altitude 10° 01:36:21 10° 264° (W) 3,659 6.3 -7.1°
Maximum altitude 01:45:39 60° 186° (S) 2,418 4.4 -8.7°
Enters shadow 02:03:26 11° 113° (ESE) 6,629 6.1 -11.6°
